When you browse on this site, cookies collect data to enhance your experience and personalize the content and advertising you see.
Visit our Privacy Policy to learn more. By continuing to use the site, you agree to this use of cookies and data.
  • In Germany
  • List of Countries
  • For 7 days
  • Water Temperature
  • Weather Map
  • Weather Widgets
  • user-avatar
    Login

    Hourly Weather Zascienie

    Today, 5 June, Friday

    Time Temperature Precipitation Wind Pressure Humidity
    00:00 +11°C° 0 mm 4 mps 740 mmHg 82%
    01:00 +11°C° 0 mm 4 mps 740 mmHg 83%
    02:00 +10°C° 0 mm 4 mps 739 mmHg 83%
    03:00 +10°C° 0 mm 4 mps 739 mmHg 84%
    04:00 +10°C° 0 mm 4 mps 738 mmHg 84%
    05:00 +12°C° 0 mm 4 mps 738 mmHg 83%
    06:00 +13°C° 0 mm 5 mps 738 mmHg 82%
    07:00 +14°C° 0 mm 5 mps 738 mmHg 81%
    08:00 +16°C° 0 mm 5 mps 738 mmHg 77%
    09:00 +19°C° 0 mm 5 mps 738 mmHg 74%
    10:00 +22°C° 0 mm 5 mps 738 mmHg 71%
    11:00 +22°C° 0.7 mm 6 mps 738 mmHg 71%
    12:00 +22°C° 0.7 mm 6 mps 738 mmHg 72%
    13:00 +22°C° 0.7 mm 7 mps 738 mmHg 72%
    14:00 +21°C° 0.6 mm 6 mps 738 mmHg 75%
    15:00 +20°C° 0.6 mm 6 mps 738 mmHg 78%
    16:00 +20°C° 0.6 mm 6 mps 739 mmHg 81%
    17:00 +17°C° 0.1 mm 5 mps 739 mmHg 84%
    18:00 +17°C° 0.1 mm 3 mps 739 mmHg 87%
    19:00 +16°C° 0.1 mm 2 mps 740 mmHg 90%
    20:00 +14°C° 0.3 mm 3 mps 740 mmHg 91%
    21:00 +14°C° 0.3 mm 3 mps 740 mmHg 93%
    22:00 +14°C° 0.3 mm 3 mps 741 mmHg 94%
    23:00 +13°C° 0.3 mm 3 mps 741 mmHg 95%

    Tomorrow, 6 June, Saturday

    Time Temperature Precipitation Wind Pressure Humidity
    00:00 +13°C° 0.3 mm 3 mps 741 mmHg 95%
    01:00 +13°C° 0.3 mm 3 mps 741 mmHg 95%
    02:00 +13°C° 0 mm 4 mps 742 mmHg 94%
    03:00 +13°C° 0 mm 5 mps 742 mmHg 93%
    04:00 +12°C° 0 mm 5 mps 743 mmHg 92%
    05:00 +13°C° 0 mm 6 mps 743 mmHg 86%
    06:00 +14°C° 0 mm 7 mps 744 mmHg 80%
    07:00 +15°C° 0 mm 7 mps 744 mmHg 75%
    08:00 +16°C° 0 mm 7 mps 745 mmHg 68%
    09:00 +17°C° 0 mm 8 mps 745 mmHg 62%
    10:00 +18°C° 0 mm 8 mps 746 mmHg 56%
    11:00 +20°C° 0 mm 7 mps 746 mmHg 54%
    12:00 +21°C° 0 mm 7 mps 746 mmHg 52%
    13:00 +22°C° 0 mm 7 mps 747 mmHg 51%
    14:00 +22°C° 0 mm 7 mps 747 mmHg 52%
    15:00 +21°C° 0 mm 7 mps 747 mmHg 54%
    16:00 +21°C° 0 mm 6 mps 747 mmHg 56%
    17:00 +20°C° 0 mm 5 mps 747 mmHg 61%
    18:00 +20°C° 0 mm 3 mps 747 mmHg 66%
    19:00 +19°C° 0 mm 2 mps 747 mmHg 72%
    20:00 +18°C° 0 mm 2 mps 748 mmHg 72%
    21:00 +18°C° 0 mm 3 mps 748 mmHg 71%
    22:00 +18°C° 0 mm 3 mps 748 mmHg 71%
    23:00 +17°C° 0 mm 3 mps 748 mmHg 74%

    Day after tomorrow, 7 June, Sunday

    Time Temperature Precipitation Wind Pressure Humidity
    00:00 +17°C° 0 mm 3 mps 748 mmHg 77%
    01:00 +16°C° 0 mm 2 mps 748 mmHg 80%
    02:00 +16°C° 0.5 mm 2 mps 748 mmHg 84%
    03:00 +16°C° 0.5 mm 2 mps 748 mmHg 88%
    04:00 +15°C° 0.5 mm 2 mps 748 mmHg 93%
    05:00 +16°C° 0.1 mm 3 mps 747 mmHg 91%
    06:00 +18°C° 0.1 mm 3 mps 747 mmHg 89%
    07:00 +19°C° 0.1 mm 3 mps 747 mmHg 88%
    08:00 +20°C° 0 mm 3 mps 747 mmHg 84%
    09:00 +21°C° 0 mm 3 mps 747 mmHg 79%
    10:00 +24°C° 0 mm 3 mps 747 mmHg 75%
    11:00 +25°C° 0.2 mm 3 mps 747 mmHg 70%
    12:00 +26°C° 0.2 mm 3 mps 748 mmHg 65%
    13:00 +27°C° 0.2 mm 3 mps 748 mmHg 59%
    14:00 +25°C° 0.6 mm 3 mps 748 mmHg 66%
    15:00 +24°C° 0.6 mm 3 mps 748 mmHg 74%
    16:00 +22°C° 0.6 mm 3 mps 748 mmHg 81%
    17:00 +21°C° 0.3 mm 3 mps 748 mmHg 84%
    18:00 +20°C° 0.3 mm 2 mps 748 mmHg 87%
    19:00 +20°C° 0.3 mm 2 mps 748 mmHg 90%
    20:00 +19°C° 0.1 mm 2 mps 749 mmHg 92%
    21:00 +18°C° 0.1 mm 2 mps 749 mmHg 93%
    22:00 +18°C° 0.1 mm 2 mps 749 mmHg 95%
    23:00 +17°C° 0.1 mm 2 mps 749 mmHg 96%

    8 June, Monday

    Time Temperature Precipitation Wind Pressure Humidity
    00:00 +17°C° 0.1 mm 3 mps 749 mmHg 96%
    01:00 +16°C° 0.1 mm 3 mps 749 mmHg 97%
    02:00 +16°C° 0.6 mm 2 mps 749 mmHg 97%
    03:00 +16°C° 0.6 mm 2 mps 749 mmHg 97%
    04:00 +16°C° 0.6 mm 2 mps 749 mmHg 98%
    05:00 +17°C° 0.7 mm 2 mps 749 mmHg 95%
    06:00 +18°C° 0.7 mm 2 mps 749 mmHg 93%
    07:00 +19°C° 0.7 mm 3 mps 749 mmHg 91%
    08:00 +20°C° 0.6 mm 2 mps 749 mmHg 85%
    09:00 +23°C° 0.6 mm 2 mps 749 mmHg 80%
    10:00 +25°C° 0.6 mm 2 mps 749 mmHg 74%
    11:00 +25°C° 1.2 mm 2 mps 748 mmHg 71%
    12:00 +26°C° 1.2 mm 3 mps 748 mmHg 69%
    13:00 +27°C° 1.2 mm 3 mps 748 mmHg 66%
    14:00 +26°C° 1.2 mm 3 mps 748 mmHg 68%
    15:00 +26°C° 1.2 mm 2 mps 748 mmHg 70%
    16:00 +25°C° 1.2 mm 2 mps 747 mmHg 72%
    17:00 +24°C° 1.1 mm 2 mps 747 mmHg 76%
    18:00 +23°C° 1.1 mm 2 mps 747 mmHg 79%
    19:00 +21°C° 1.1 mm 2 mps 747 mmHg 83%
    20:00 +21°C° 0.4 mm 2 mps 748 mmHg 84%
    21:00 +20°C° 0.4 mm 2 mps 748 mmHg 85%
    22:00 +20°C° 0.4 mm 2 mps 748 mmHg 86%
    23:00 +19°C° 0.2 mm 2 mps 748 mmHg 88%

    9 June, Tuesday

    Time Temperature Precipitation Wind Pressure Humidity
    00:00 +20°C° 0.2 mm 1 mps 748 mmHg 90%
    01:00 +20°C° 0.2 mm 1 mps 748 mmHg 92%
    02:00 +19°C° 0.2 mm 1 mps 748 mmHg 93%
    03:00 +19°C° 0.2 mm 1 mps 748 mmHg 94%
    04:00 +19°C° 0.2 mm 1 mps 748 mmHg 95%
    05:00 +20°C° 0.1 mm 1 mps 749 mmHg 93%
    06:00 +20°C° 0.1 mm 1 mps 749 mmHg 90%
    07:00 +21°C° 0.1 mm 1 mps 749 mmHg 88%
    08:00 +22°C° 0 mm 1 mps 749 mmHg 84%
    09:00 +23°C° 0 mm 2 mps 749 mmHg 80%
    10:00 +24°C° 0 mm 2 mps 749 mmHg 76%
    11:00 +24°C° 0.3 mm 2 mps 749 mmHg 76%
    12:00 +24°C° 0.3 mm 3 mps 749 mmHg 76%
    13:00 +25°C° 0.3 mm 3 mps 749 mmHg 76%
    14:00 +24°C° 0.4 mm 3 mps 749 mmHg 77%
    15:00 +24°C° 0.4 mm 3 mps 749 mmHg 77%
    16:00 +24°C° 0.4 mm 3 mps 749 mmHg 78%
    17:00 +22°C° 0.1 mm 3 mps 749 mmHg 81%
    18:00 +22°C° 0.1 mm 3 mps 749 mmHg 84%
    19:00 +21°C° 0.1 mm 3 mps 750 mmHg 87%
    20:00 +20°C° 0 mm 3 mps 750 mmHg 90%
    21:00 +19°C° 0 mm 3 mps 750 mmHg 92%
    22:00 +18°C° 0 mm 3 mps 750 mmHg 95%
    23:00 +18°C° 0 mm 2 mps 750 mmHg 95%

    10 June, Wednesday

    Time Temperature Precipitation Wind Pressure Humidity
    00:00 +18°C° 0 mm 2 mps 750 mmHg 95%
    01:00 +18°C° 0 mm 2 mps 750 mmHg 96%
    02:00 +18°C° 0 mm 2 mps 751 mmHg 95%
    03:00 +18°C° 0 mm 2 mps 751 mmHg 95%
    04:00 +18°C° 0 mm 2 mps 751 mmHg 95%
    05:00 +19°C° 0 mm 2 mps 751 mmHg 93%
    06:00 +20°C° 0 mm 1 mps 751 mmHg 91%
    07:00 +21°C° 0 mm 1 mps 751 mmHg 88%
    08:00 +21°C° 0 mm 1 mps 751 mmHg 85%
    09:00 +22°C° 0 mm 1 mps 752 mmHg 82%
    10:00 +23°C° 0 mm 1 mps 752 mmHg 79%
    11:00 +23°C° 0 mm 1 mps 752 mmHg 77%
    12:00 +24°C° 0 mm 1 mps 752 mmHg 75%
    13:00 +24°C° 0 mm 1 mps 752 mmHg 73%
    14:00 +25°C° 0 mm 2 mps 751 mmHg 73%
    15:00 +25°C° 0 mm 2 mps 751 mmHg 74%
    16:00 +25°C° 0 mm 2 mps 751 mmHg 74%
    17:00 +24°C° 0 mm 2 mps 751 mmHg 77%
    18:00 +23°C° 0 mm 2 mps 752 mmHg 80%
    19:00 +21°C° 0 mm 2 mps 752 mmHg 84%
    20:00 +21°C° 0.2 mm 2 mps 752 mmHg 87%
    21:00 +20°C° 0.2 mm 2 mps 752 mmHg 90%
    22:00 +19°C° 0.2 mm 2 mps 753 mmHg 92%
    23:00 +19°C° 0 mm 2 mps 753 mmHg 93%
    Show more